Location: Ahausen
(50.4985°N, 8.2722°E)
Time: 03:17:48
(UTC+00:00)

ITUPSAT 1 - Pass Details

Date: 29 June 2022
Orbit: 701 x 711 km, 98.6° (Epoch: 11 August)

Event Time Altitude Azimuth Distance (km) Brightness Sun altitude
Rises 21:00:20 0° 8° (N) 3,111 ? -9.2°
Reaches altitude 10° 21:02:47 10° 359° (N) 2,190 ? -9.4°
Maximum altitude 21:07:01 32° 297° (WNW) 1,201 ? -9.8°
Drops below altitude 10° 21:11:15 10° 234° (SW) 2,182 ? -10.1°
Sets 21:13:41 0° 225° (SW) 3,098 ? -10.4°
